Flag for U.S.A. Weather past 2 weeks in Kansas City, Missouri, U.S.A.

Now
24 °F

Light snow. Overcast.


Feels Like: 17 °F
Forecast: 23 / 34 °F
Wind: 6 mph from Southeast

Location: Kansas City Downtown Airport

Current Time: Feb 28, 2015 at 6:43:54 PM

Latest Report: Feb 28, 2015 at 5:54 PM


Visibility: 4 mi

Pressure: 30.42 "Hg

Humidity: 77%

Dew point: 18 °F

Location of Kansas CityLocation

Historic Weather in Kansas City — Graph

°F

Kansas City temperature yesterday

Maximum temperature yesterday: 19 °F (at 3:54 PM)
Minimum temperature yesterday: 4 °F (at 5:54 AM)
Average temperature yesterday: 13 °F

Past Weeks' High & Low Weather Summary

 TemperatureHumidityPressure
High55 °F (Feb 25, 1:54 PM)96% (Feb 21, 12:54 AM)30.83 "Hg (Feb 21, 12:54 AM)
Low4 °F (Feb 27, 5:54 AM)22% (Feb 14, 2:54 PM)29.72 "Hg (Feb 25, 2:54 PM)
Average23 °F59%30.30 "Hg
* Reported Feb 13 4:54 PM — Feb 28 4:54 PM, Kansas City, Weather by CustomWeather, © 2015

Note: Actual official high and low records may vary slightly from our data, if they occured in-between our weather recording intervals... More about our weather records

Advertising

Kansas City weather history for previous 24 hours

 ConditionsComfort  
Time TempWeatherWind HumidityBarometerVisibility
4:54 PM
Sat, Feb 28
25 °FLight snow. Overcast.6 mph75%30.43 "Hg5 mi
4:04 PM25 °FLight snow. Mostly cloudy.5 mph75%30.41 "Hg2 mi
2:54 PM24 °FLight snow. Mostly cloudy.6 mph77%30.45 "Hg4 mi
1:54 PM24 °FLight snow. Mostly cloudy.5 mph81%30.48 "Hg1 mi
12:56 PM23 °FLight snow. Mostly cloudy.8 mph78%30.47 "Hg1 mi
12:01 PM23 °FLight snow. Mostly cloudy.8 mph78%30.49 "Hg2 mi
10:54 AM21 °FLight snow. Overcast.5 mph81%30.55 "Hg1 mi
9:54 AM21 °FLight snow. Mostly cloudy.7 mph71%30.57 "Hg1 mi
8:54 AM21 °FCloudy.6 mph60%30.57 "Hg10 mi
7:54 AM19 °FOvercast.9 mph68%30.55 "Hg10 mi
6:54 AM18 °FPartly sunny.8 mph71%30.56 "Hg10 mi
5:54 AM17 °FOvercast.7 mph70%30.57 "Hg10 mi
4:54 AM18 °FOvercast.7 mph65%30.57 "Hg10 mi
3:54 AM17 °FOvercast.6 mph68%30.56 "Hg10 mi
2:54 AM17 °FOvercast.8 mph64%30.57 "Hg10 mi
1:54 AM18 °FOvercast.7 mph59%30.58 "Hg10 mi
12:54 AM17 °FOvercast.7 mph59%30.59 "Hg10 mi
11:54 PM
Fri, Feb 27
18 °FOvercast.7 mph57%30.60 "Hg10 mi
10:54 PM18 °FOvercast.7 mph57%30.61 "Hg10 mi
9:54 PM18 °FOvercast.7 mph57%30.62 "Hg10 mi
8:54 PM18 °FOvercast.9 mph54%30.61 "Hg10 mi
7:54 PM18 °FClear.8 mph54%30.61 "Hg10 mi
6:54 PM19 °FPassing clouds.8 mph47%30.61 "Hg10 mi
Weather by CustomWeather, © 2015

See weather overviewHow to use our weather pages